Owatonna, MN

1:48 AM CDT on May 27, 2017 (GMT -0500)
Owatonna Degner Regional

Weather History for KOWA - February, 2014

Change the Weather History Date:

Sunday, February 23, 2014

  Actual Average Record
Temperature  
Mean Temperature 4 °F -  
Max Temperature 14 °F 34 °F 75 °F (1999)
Min Temperature -5 °F 13 °F -12 °F (1967)
Degree Days  
Heating Degree Days 60    
Moisture  
Dew Point 0 °F    
Average Humidity 75    
Maximum Humidity 85    
Minimum Humidity 62    
Precipitation  
Precipitation 0.00 in - - ()
Sea Level Pressure  
Sea Level Pressure 30.22 in    
Wind  
Wind Speed 10 mph (West)    
Max Wind Speed 17 mph    
Max Gust Speed -    
Visibility 10 miles    
Events      
Averages and records for this station are not official NWS values.
T = Trace of Precipitation, MM = Missing Value Source: NWS Daily Summary

Daily Weather History Graph

Daily Weather History Graph

Search for Another Location

Airport or City:

Trip Planner

Search our weather history database for the weather conditions in past years. The results will help you decide how hot, cold, wet, or windy it might be!

Date:

Astronomy

Feb. 23, 2014 Rise Set
Actual Time 6:59 AM CST 5:53 PM CST
Civil Twilight 6:30 AM CST 6:22 PM CST
Nautical Twilight 5:57 AM CST 6:56 PM CST
Astronomical Twilight 5:23 AM CST 7:29 PM CST
Moon 2:05 AM CST (2/23) 11:49 AM CST (2/23)
Length of Visible Light 11h 52m
Length of Day
10h 53m
Last Quarter, 38% of the Moon is Illuminated
Feb 23
Last Quarter
Mar 1
New
Mar 8
First Quarter
Mar 16
Full
Mar 23
Last Quarter

Hourly Weather History & Observations

Time (CST) Temp. Windchill Dew Point Humidity Pressure Visibility Wind Dir Wind Speed Gust Speed Precip Events Conditions
12:14 AM 5.0 °F -9.1 °F -0.4 °F 78% 30.14 in 10.0 mi West 9.2 mph - N/A   Clear
12:34 AM 3.2 °F -11.3 °F -2.2 °F 78% 30.14 in 10.0 mi West 9.2 mph - N/A   Clear
12:54 AM 3.2 °F -12.2 °F -0.4 °F 85% 30.15 in 10.0 mi West 10.4 mph - N/A   Clear
1:14 AM 5.0 °F -10.0 °F -0.4 °F 78% 30.15 in 10.0 mi WNW 10.4 mph - N/A   Clear
1:34 AM 3.2 °F -12.2 °F -2.2 °F 78% 30.16 in 10.0 mi WNW 10.4 mph - N/A   Clear
1:54 AM 5.0 °F -10.0 °F -0.4 °F 78% 30.16 in 10.0 mi WNW 10.4 mph - N/A   Clear
2:14 AM 3.2 °F -13.1 °F -2.2 °F 78% 30.16 in 10.0 mi WNW 11.5 mph - N/A   Clear
2:34 AM 3.2 °F -11.3 °F -2.2 °F 78% 30.17 in 10.0 mi WNW 9.2 mph - N/A   Clear
2:54 AM 1.4 °F -12.5 °F -4.0 °F 78% 30.17 in 10.0 mi WNW 8.1 mph - N/A   Clear
3:14 AM 1.4 °F -13.5 °F -4.0 °F 78% 30.17 in 10.0 mi West 9.2 mph - N/A   Clear
3:34 AM 1.4 °F -12.5 °F -4.0 °F 78% 30.17 in 10.0 mi West 8.1 mph - N/A   Clear
3:54 AM -0.4 °F -14.7 °F -5.8 °F 78% 30.17 in 10.0 mi West 8.1 mph - N/A   Clear
4:14 AM -0.4 °F -14.7 °F -5.8 °F 78% 30.17 in 10.0 mi West 8.1 mph - N/A   Clear
4:34 AM -0.4 °F -14.7 °F -5.8 °F 78% 30.18 in 10.0 mi West 8.1 mph - N/A   Clear
4:54 AM -0.4 °F -14.7 °F -5.8 °F 78% 30.18 in 10.0 mi West 8.1 mph - N/A   Clear
5:14 AM -0.4 °F -14.7 °F -5.8 °F 78% 30.18 in 10.0 mi West 8.1 mph - N/A   Clear
5:34 AM -2.2 °F -12.5 °F -7.6 °F 78% 30.19 in 10.0 mi West 4.6 mph - N/A   Clear
5:54 AM -2.2 °F -14.2 °F -7.6 °F 78% 30.18 in 10.0 mi West 5.8 mph - N/A   Clear
6:14 AM -2.2 °F -16.8 °F -7.6 °F 78% 30.18 in 10.0 mi West 8.1 mph - N/A   Clear
6:34 AM -0.4 °F -14.7 °F -5.8 °F 78% 30.18 in 10.0 mi West 8.1 mph - N/A   Clear
6:54 AM -0.4 °F -13.4 °F -5.8 °F 78% 30.18 in 10.0 mi West 6.9 mph - N/A   Clear
7:14 AM -5.8 °F -19.9 °F -9.4 °F 84% 30.19 in 10.0 mi WSW 6.9 mph - N/A   Clear
7:34 AM -4.0 °F -17.8 °F -7.6 °F 85% 30.20 in 10.0 mi West 6.9 mph - N/A   Clear
7:54 AM -2.2 °F -16.8 °F -7.6 °F 78% 30.22 in 10.0 mi SW 8.1 mph - N/A   Clear
8:14 AM -0.4 °F -16.7 °F -5.8 °F 78% 30.23 in 10.0 mi SW 10.4 mph - N/A   Clear
8:34 AM -0.4 °F -15.7 °F -5.8 °F 78% 30.23 in 10.0 mi WSW 9.2 mph - N/A   Clear
8:54 AM 1.4 °F -13.5 °F -4.0 °F 78% 30.23 in 10.0 mi WSW 9.2 mph - N/A   Scattered Clouds
9:14 AM 1.4 °F -13.5 °F -2.2 °F 85% 30.24 in 10.0 mi West 9.2 mph - N/A   Scattered Clouds
9:34 AM 5.0 °F -10.0 °F -2.2 °F 72% 30.24 in 10.0 mi West 10.4 mph - N/A   Clear
9:54 AM 5.0 °F -9.1 °F -0.4 °F 78% 30.24 in 10.0 mi West 9.2 mph - N/A   Clear
10:14 AM 6.8 °F -10.0 °F -0.4 °F 72% 30.24 in 10.0 mi West 13.8 mph - N/A   Clear
10:34 AM 8.6 °F -7.0 °F 1.4 °F 73% 30.24 in 10.0 mi West 12.7 mph - N/A   Clear
10:54 AM 8.6 °F -8.9 °F 1.4 °F 73% 30.25 in 10.0 mi West 16.1 mph - N/A   Clear
11:14 AM 8.6 °F -8.9 °F 1.4 °F 73% 30.25 in 10.0 mi West 16.1 mph - N/A   Clear
11:34 AM 8.6 °F -8.3 °F 1.4 °F 73% 30.25 in 10.0 mi West 15.0 mph - N/A   Clear
11:54 AM 10.4 °F -6.6 °F 1.4 °F 67% 30.25 in 10.0 mi West 16.1 mph - N/A   Clear
12:14 PM 10.4 °F -6.0 °F 1.4 °F 67% 30.25 in 10.0 mi West 15.0 mph - N/A   Clear
12:34 PM 10.4 °F -6.0 °F 1.4 °F 67% 30.24 in 10.0 mi West 15.0 mph - N/A   Clear
12:54 PM 10.4 °F -6.6 °F 3.2 °F 73% 30.24 in 10.0 mi West 16.1 mph - N/A   Clear
1:14 PM 12.2 °F -3.7 °F 3.2 °F 67% 30.23 in 10.0 mi West 15.0 mph - N/A   Clear
1:34 PM 12.2 °F -4.3 °F 1.4 °F 62% 30.23 in 10.0 mi West 16.1 mph - N/A   Clear
1:54 PM 12.2 °F -4.8 °F 3.2 °F 67% 30.23 in 10.0 mi West 17.3 mph - N/A   Clear
2:14 PM 12.2 °F -3.7 °F 3.2 °F 67% 30.23 in 10.0 mi West 15.0 mph - N/A   Clear
2:34 PM 12.2 °F -4.3 °F 3.2 °F 67% 30.24 in 10.0 mi West 16.1 mph - N/A   Clear
2:54 PM 12.2 °F -4.3 °F 3.2 °F 67% 30.24 in 10.0 mi West 16.1 mph - N/A   Clear
3:14 PM 12.2 °F -4.8 °F 3.2 °F 67% 30.23 in 10.0 mi West 17.3 mph - N/A   Clear
3:34 PM 14.0 °F -2.0 °F 5.0 °F 67% 30.23 in 10.0 mi West 16.1 mph - N/A   Clear
3:54 PM 14.0 °F -0.2 °F 5.0 °F 67% 30.23 in 10.0 mi West 12.7 mph - N/A   Clear
4:14 PM 14.0 °F -2.0 °F 5.0 °F 67% 30.23 in 10.0 mi West 16.1 mph - N/A   Clear
4:34 PM 14.0 °F -0.8 °F 5.0 °F 67% 30.23 in 10.0 mi West 13.8 mph - N/A   Clear
4:54 PM 14.0 °F -0.2 °F 5.0 °F 67% 30.23 in 10.0 mi West 12.7 mph - N/A   Clear
5:14 PM 12.2 °F -2.5 °F 5.0 °F 73% 30.23 in 10.0 mi West 12.7 mph - N/A   Clear
5:34 PM 12.2 °F -1.8 °F 5.0 °F 73% 30.23 in 10.0 mi West 11.5 mph - N/A   Clear
5:54 PM 12.2 °F -1.0 °F 5.0 °F 73% 30.24 in 10.0 mi West 10.4 mph - N/A   Clear
6:14 PM 10.4 °F -2.4 °F 3.2 °F 73% 30.24 in 10.0 mi West 9.2 mph - N/A   Clear
6:34 PM 8.6 °F -4.7 °F 3.2 °F 79% 30.24 in 10.0 mi West 9.2 mph - N/A   Clear
6:54 PM 8.6 °F -4.7 °F 1.4 °F 73% 30.24 in 10.0 mi WSW 9.2 mph - N/A   Clear
7:14 PM 8.6 °F -4.7 °F 3.2 °F 79% 30.25 in 10.0 mi West 9.2 mph - N/A   Clear
7:34 PM 10.4 °F -3.3 °F 3.2 °F 73% 30.24 in 10.0 mi West 10.4 mph - N/A   Clear
7:54 PM 8.6 °F -5.5 °F 1.4 °F 73% 30.24 in 10.0 mi West 10.4 mph - N/A   Clear
8:14 PM 8.6 °F -5.5 °F 1.4 °F 73% 30.24 in 10.0 mi West 10.4 mph - N/A   Clear
8:34 PM 8.6 °F -5.5 °F 1.4 °F 73% 30.25 in 10.0 mi West 10.4 mph - N/A   Clear
8:54 PM 8.6 °F -4.7 °F 1.4 °F 73% 30.25 in 10.0 mi West 9.2 mph - N/A   Clear
9:14 PM 6.8 °F -5.9 °F 1.4 °F 79% 30.26 in 10.0 mi West 8.1 mph - N/A   Clear
9:34 PM 6.8 °F -6.9 °F 1.4 °F 79% 30.26 in 10.0 mi West 9.2 mph - N/A   Clear
9:54 PM 6.8 °F -6.9 °F 1.4 °F 79% 30.26 in 10.0 mi West 9.2 mph - N/A   Clear
10:14 PM 8.6 °F -5.5 °F 1.4 °F 73% 30.26 in 10.0 mi West 10.4 mph - N/A   Clear
10:34 PM 8.6 °F -5.5 °F 1.4 °F 73% 30.26 in 10.0 mi West 10.4 mph - N/A   Clear
10:54 PM 6.8 °F -6.9 °F 1.4 °F 79% 30.26 in 10.0 mi West 9.2 mph - N/A   Clear
11:14 PM 5.0 °F -9.1 °F -0.4 °F 78% 30.26 in 10.0 mi West 9.2 mph - N/A   Clear
11:34 PM 5.0 °F -10.0 °F -0.4 °F 78% 30.26 in 10.0 mi West 10.4 mph - N/A   Clear
11:54 PM 5.0 °F -10.8 °F -0.4 °F 78% 30.26 in 10.0 mi West 11.5 mph - N/A   Clear